Погода в Успенском

Россия / Смоленская область     55°20′30″N   34°39′47″E
темп.,
°C
ветер,
м/с
пор.,
м/с
влажн.,
%
обл.,
%
осадки,
мм/ч
давл.,
гПа
погр.,
м
13 мая, чт
чт1300:00+9ююв5119479 1.5 1017647
03:00+6вюв389821 1.5 1018238
06:00+6вюв411956 0.0 1017334
09:00+9вюв5139075 0.1 1017667
12:00+13вюв6107899 0.8 10151323
15:00+12юв6107932 3.0 10141053
18:00+13ююв587614 0.5 10131016
21:00+8юв369396 0.7 1014104
14 мая, пт
пт1400:00+8ююв3795100 0.0 1014147
03:00+6ююв37965 0.0 1015135
06:00+7юв3993100 0.0 1015219
09:00+13юв4876100 0.0 1014445
12:00+18юв51058100 0.0 10131171
15:00+19юв5866100 0.3 10111366
18:00+17вюв5108788 1.5 1010619
21:00+14в41197100 1.8 1008293
15 мая, сб
сб1500:00+13юв49979 0.0 1007216
03:00+12юв389933 0.0 1007178
06:00+12ююв389832 0.0 1007229
09:00+17ю5118220 0.2 1007714
12:00+19ююз796233 0.4 10071537
15:00+19юз6106222 1.2 10081587
18:00+17юз596745 0.3 10091151
21:00+13ююз339113 0.4 101048
16 мая, вс
вс1600:00+11ю239564 0.0 101054
03:00+10ююв22965 0.3 101128
06:00+10юз139964 3.1 1012122
09:00+15зюз348333 3.8 1013588
12:00+18юз346275 0.1 10131418
15:00+18юз246549 0.1 1014893
18:00+19зюз136874 0.0 1013342
21:00+16юв1174100 0.0 101411
17 мая, пн
пн1700:00+13в2384100 0.0 101439
03:00+11вюв3593100 0.0 101592
06:00+12вюв398972 0.0 1014207
09:00+18вюв4870100 0.0 1014523
12:00+22вюв695950 0.0 10121146
15:00+25вюв6106013 0.0 10101462
18:00+23вюв611696 0.1 1009939
21:00+18вюв515745 0.1 1009500